Location: Buena Vista
(37.7110°N, 119.7938°W)
Time: 18:06:37
(UTC+00:00)

Envisat - Pass Details

Date: 20 August 2024
Orbit: 762 x 764 km, 98.3° (Epoch: 11 September)

Event Time Altitude Azimuth Distance (km) Brightness Sun altitude
Rises 12:12:56 0° 357° (N) 3,233 6.6 -13.1°
Reaches altitude 10° 12:15:40 10° 344° (NNW) 2,302 5.6 -12.6°
Maximum altitude 12:19:32 23° 293° (WNW) 1,598 4.3 -11.9°
Enters shadow 12:22:12 15° 254° (WSW) 1,960 4.5 -11.5°
